map of ESN home
ESN - Airport
Location
City:  Easton, Maryland, United States
Name:Easton/Newnam Field
ICAO:KESN
IATA:ESN
FAA LID:ESN

Details
Type:Airport (Airfield)
Use:Public/Civil
Latitude:3848'15"N (38.804167)
Longitude:7604'08"W (-76.068999)
Datum:WGS 1984
Elevation:72 ft (22 m)
Variation:11.37W (WMM2015 magnetic declination)
-0.00 annual change
Runways:2
Longest:5500 × 100 ft (1676 × 30.5 m), paved

Time
Time Zone:UTC-5 (DST-4)
Local Time:

Weather
METAR:KESN 170149Z 32010G16KT 10SM BKN013 BKN017 06/04 A2991

Related Locations
Nearby:
Farthest:YAUG: 11745 mi / 18901 km
Augusta [Augusta Airport], WA, AU

Find:

   beyond  
but within

Other Information
Maps:
NOTAMs:
Links:
Sources:

  
  • flag of United States
  • flag of Maryland
  

Airport Diagram

Airport diagram for ESN

Airport diagram PDF

Sectional Chart

Flight Planning
at skyvector.com

Satellite Image

Google Maps Satellite view

 

Copyright © 2004-2018 Karl L. Swartz. All rights reserved.
The Great Circle Mapper name and logo are trademarks of the Great Circle Mapper.
All other trademarks mentioned herein belong to their respective owners.
Please see credits for attibutions and further copyright information.

  Follow gcmap on Facebook Follow gcmap on Twitter Follow gcmap on Google+ GCmap on LinkedIn

hCard Microformat

Geo Microformat